CAPE
0 0 0 0 0 0 0 0 0 0 0 7 0 6 0 0 0 0 0 0 0 0 0 0 0 0 0 0 0 0 0 0
0 0 0 0 0 0 0 0 0 0 0 9 12 18 16 0 0 0 0 0 0 0 0 0 0 0 0 0 0 0 0 0
0 0 0 0 0 0 0 0 0 0 28 45 50 45 61 71 3 0 0 0 0 0 0 0 0 0 0 0 0 0 0 0
0 0 0 0 0 0 7 57 43 42 70 85 87 118 75 133 81 1 0 0 0 0 0 0 0 0 0 0 0 0 0 0
23 11 0 0 5 0 0 108 191 182 177 196 144 195 221 128 2 0 0 0 0 0 0 0 0 0 0 0 0 0 0 0
18 6 90 38 12 12 70 76 243 345 271 116 5 114 0 0 0 0 0 0 0 0 0 0 0 0 0 0 0 0 0 0
0 0 18 0 1 0 24 172 264 445 121 0 2 0 0 0 0 0 0 0 0 0 0 0 0 0 0 0 0 0 0 0
84 10 27 7 13 1 0 26 161 75 74 12 0 8 0 0 0 0 0 0 0 0 0 0 0 0 0 0 0 0 0 0
410 360 559 447 300 31 2 59 30 81 46 5 0 0 0 0 0 0 0 0 0 0 0 0 0 0 0 0 0 0 0 0
724 430 118 76 217 154 18 2 0 1 0 0 0 0 0 0 0 0 0 0 0 0 0 0 0 0 0 0 0 0 0 0
721 403 213 0 191 154 0 0 0 0 0 0 0 0 0 0 0 0 0 0 0 0 0 0 0 0 0 0 0 0 0 0
205 384 106 57 39 0 0 0 0 0 0 0 0 0 0 0 0 0 0 0 0 0 0 0 0 0 0 0 0 0 0 0
0 0 0 0 0 0 0 0 0 0 0 0 0 0 0 0 0 0 0 0 0 0 0 0 0 0 0 0 0 0 0 0
0 0 0 0 0 0 0 0 0 0 0 0 0 0 0 0 0 0 0 0 0 0 0 0 0 0 0 0 0 0 0 0
0 0 0 0 0 0 0 0 0 0 0 0 0 0 0 0 0 0 0 0 0 0 0 0 0 0 0 0 0 0 0 0
0 0 0 0 0 0 0 0 0 0 0 0 0 0 0 0 0 0 0 0 0 0 0 0 2 1 0 1 0 0 0 0
0 0 0 0 0 0 0 0 0 0 0 0 0 0 0 0 0 0 0 0 0 0 0 0 0 0 0 0 0 0 0 0
0 0 0 0 0 0 0 0 0 0 0 0 0 0 0 0 0 0 0 0 0 0 0 0 0 0 0 0 0 0 0 1
0 0 0 0 0 0 0 0 0 0 0 0 0 0 0 0 0 0 0 0 0 0 0 0 0 0 0 0 1 0 0 0
0 0 0 0 0 0 0 0 0 0 0 0 0 0 0 0 0 0 0 0 0 0 0 0 0 0 0 1 5 14 11 7
CIN
0 0 0 0 0 0 0 0 0 0 0 -332 0 -277 0 0 0 0 0 0 0 0 0 0 0 0 0 0 0 0 0 0
0 0 0 0 0 0 0 0 0 0 0 -299 -315 -268 -264 -13 0 0 0 0 0 0 0 0 0 0 0 0 0 0 0 0
0 0 0 0 0 0 0 0 0 0 -260 -273 -256 -248 -224 -210 -58 0 0 0 0 0 0 0 0 0 0 0 0 0 0 0
0 0 0 0 0 0 -255 -244 -240 -233 -240 -259 -244 -220 -228 -170 -182 -43 0 0 0 0 0 0 0 0 0 0 0 0 0 0
-328 -334 0 0 -303 0 -26 -217 -179 -187 -164 -172 -206 -171 -154 -168 -23 0 0 0 0 0 0 0 0 0 0 0 0 0 0 0
-249 -74 -260 -268 -223 -252 -206 -210 -170 -134 -120 -148 -36 -137 0 0 0 0 0 0 0 0 0 0 0 0 0 0 0 0 0 0
0 -17 -198 -33 -92 -106 -214 -141 -133 -111 -159 0 -72 0 0 0 0 0 0 0 0 0 0 0 0 0 0 0 0 0 0 0
-136 -63 -135 -116 -175 -79 0 -125 -99 -121 -130 -179 0 -135 0 0 0 0 0 0 0 0 0 0 0 0 0 0 0 0 0 0
-95 -135 -81 -89 -134 -209 -139 -130 -134 -119 -139 -178 0 0 0 0 0 0 0 0 0 0 0 0 0 0 0 0 0 0 0 0
-142 -155 -185 -228 -173 -195 -224 -157 0 -52 0 0 0 0 0 0 0 0 0 0 0 0 0 0 0 0 0 0 0 0 0 0
-131 -139 -151 0 -208 -204 0 0 0 0 0 0 0 0 0 0 0 0 0 0 0 0 0 0 0 0 0 0 0 0 0 0
-240 -170 -230 -249 -254 0 0 0 0 0 0 0 0 0 0 0 0 0 0 0 0 0 0 0 0 0 0 0 0 0 0 0
0 0 0 0 0 0 0 0 0 0 0 0 0 0 0 0 0 0 0 0 0 0 0 0 0 0 0 0 0 0 0 0
0 0 0 0 0 0 0 0 0 0 0 0 0 0 0 0 0 0 0 0 0 0 0 0 0 0 0 0 0 0 0 0
0 0 0 0 0 0 0 0 0 0 0 0 0 0 0 0 0 0 0 0 0 0 0 0 0 0 0 0 0 0 0 0
0 0 0 0 0 0 0 0 0 0 0 0 0 0 0 0 0 0 0 0 0 0 0 0 -44 -27 0 -57 0 0 0 0
0 0 0 0 0 0 0 0 0 0 0 0 0 0 0 0 0 0 0 0 0 0 0 0 0 0 0 -16 0 0 0 -0
0 0 0 0 0 0 0 0 0 0 0 0 0 0 0 0 0 0 0 0 0 0 0 0 0 0 0 0 0 0 0 -0
0 0 0 0 0 0 0 0 0 0 0 0 0 0 0 0 0 0 0 0 0 0 0 0 0 0 0 -2 -23 0 -4 0
0 0 0 0 0 0 0 0 0 0 0 0 0 0 0 0 0 0 0 0 0 0 0 0 0 0 0 -10 -6 -5 -5 -2
Wind_Speed
12 14 16 17 16 16 16 16 16 16 16 17 18 19 19 19 20 21 21 21 22 23 24 25 25 26 26 27 28 28 26 26
16 16 16 16 15 16 16 16 17 17 17 17 18 18 19 19 20 21 21 21 22 23 24 25 25 25 26 28 29 27 28 27
15 14 14 15 15 16 16 16 16 16 16 17 17 17 17 17 19 20 20 21 22 22 23 24 25 25 25 26 28 26 27 28
14 14 13 14 15 15 15 14 14 14 15 15 15 15 16 17 17 17 19 20 20 21 22 23 24 24 24 24 25 25 26 28
14 14 13 13 13 12 12 12 12 13 14 14 14 15 14 15 16 17 19 20 22 24 24 24 26 26 25 24 23 24 24 26
14 13 13 11 10 10 10 10 9 10 12 14 16 16 17 17 16 19 22 24 26 25 25 25 27 28 28 28 26 24 24 25
12 13 12 13 10 13 12 8 7 8 10 13 15 15 16 18 19 21 23 25 26 26 28 31 35 36 35 34 34 31 27 25
9 9 12 14 12 12 12 10 9 9 9 10 13 13 16 18 20 22 23 25 27 28 31 34 36 37 39 39 38 35 35 32
10 9 8 11 10 10 13 10 10 9 8 11 11 13 15 17 20 21 24 26 30 32 34 35 38 38 40 40 39 39 37 35
8 10 5 11 11 13 14 13 11 13 13 14 16 17 17 19 22 24 26 28 30 33 35 38 41 42 43 42 39 38 38 40
5 7 7 10 15 15 15 15 19 19 19 18 18 19 21 23 25 27 28 32 34 35 37 38 41 43 43 42 42 41 40 38
11 12 13 12 15 17 17 18 22 22 22 23 22 24 26 27 29 32 34 36 36 38 38 39 41 43 43 44 41 41 40 39
15 16 16 15 16 17 19 21 21 21 24 24 25 26 27 29 31 33 35 37 37 37 38 42 42 43 45 47 44 42 38 37
17 17 18 19 18 18 19 18 21 23 23 24 25 27 28 30 33 36 38 39 40 40 40 41 38 39 40 43 47 48 37 42
17 19 20 20 21 21 23 23 24 24 26 25 27 28 30 33 35 38 39 39 39 39 37 37 38 36 35 38 45 48 51 39
20 20 20 21 22 23 24 25 26 24 24 26 28 30 33 35 37 39 39 38 38 35 34 35 35 38 35 35 35 39 46 52
20 21 23 23 24 24 25 26 26 25 27 30 33 34 36 38 38 39 38 37 36 35 35 34 35 36 37 37 38 38 36 40
20 22 24 24 25 27 27 28 28 29 31 35 36 36 37 37 37 37 35 35 34 34 33 34 36 37 36 37 37 37 38 38
22 23 24 25 26 27 28 28 28 31 33 36 36 37 37 36 37 36 35 34 33 33 34 37 37 36 39 38 35 34 35 36
23 24 25 26 26 28 29 28 29 31 33 34 34 34 35 35 35 34 34 33 34 34 34 35 37 36 38 37 36 34 33 32
Wind_Direction
58 59 62 61 57 52 53 57 55 52 49 46 42 36 36 30 24 19 14 8 3 359 355 349 345 340 338 334 329 326 327 326
83 76 64 59 57 58 59 63 58 59 58 53 47 41 33 29 22 17 12 10 6 3 358 353 350 349 345 338 331 331 325 322
83 64 56 51 53 67 69 66 59 56 53 45 42 39 35 31 22 17 12 7 3 0 358 354 352 351 350 346 340 333 329 323
91 78 76 71 69 76 69 58 53 50 46 50 44 39 35 28 22 19 10 8 5 2 359 356 355 353 352 350 346 342 336 327
100 88 83 73 63 71 58 51 44 43 38 38 36 30 29 21 17 12 7 4 359 353 351 351 350 349 349 349 347 345 341 335
105 97 81 64 41 57 65 51 48 38 26 24 19 22 19 17 15 4 356 353 349 348 348 347 345 342 339 339 340 338 336 332
102 93 72 58 31 48 35 41 50 40 27 17 14 16 12 7 3 358 354 351 349 347 343 336 329 325 322 322 323 326 328 326
89 66 51 48 12 27 36 28 37 25 16 16 10 8 4 359 356 352 350 349 347 343 338 334 330 326 318 317 318 321 318 318
114 53 48 69 40 46 22 20 18 13 4 360 359 356 355 353 350 348 346 344 341 339 335 333 330 328 324 321 320 319 319 317
94 88 63 3 22 17 8 3 6 2 352 349 347 347 348 347 345 343 341 340 340 337 334 329 326 324 321 320 320 319 317 315
75 37 22 29 12 7 5 6 355 352 353 352 352 352 349 346 342 340 339 335 334 334 331 330 327 324 322 321 318 317 315 315
11 3 5 5 6 8 9 6 360 1 358 355 356 352 349 345 341 337 336 333 332 331 329 329 327 324 321 319 318 315 314 313
28 20 12 15 9 3 0 357 1 2 357 355 353 352 350 346 343 340 338 335 333 331 328 326 324 324 320 317 317 315 316 316
21 19 18 17 14 7 2 360 358 357 356 356 354 350 347 344 340 337 335 331 329 328 327 325 325 327 323 320 315 312 314 313
5 2 2 0 357 353 349 347 345 343 345 345 345 345 343 340 338 335 333 331 329 328 328 326 324 325 327 322 315 310 311 311
354 354 353 352 351 349 347 345 342 341 341 342 341 341 339 337 335 334 333 332 331 330 329 328 326 322 322 322 319 316 311 306
354 350 346 348 348 349 347 344 344 344 342 340 338 337 336 335 335 335 334 333 331 329 327 326 326 323 321 319 317 315 314 310
354 355 352 351 351 350 348 345 343 341 339 337 337 335 336 337 337 336 336 335 333 332 330 328 326 323 321 319 317 313 311 311
351 350 351 351 351 350 349 347 345 341 339 337 337 337 337 337 337 336 335 335 334 331 328 326 325 322 321 319 317 314 313 309
350 352 351 349 349 347 346 346 344 341 340 339 339 340 338 338 337 336 335 334 332 330 329 327 325 321 320 318 317 316 316 313